Time,TemperatureF,DewpointF,PressureIn,WindDirection,WindDirectionDegrees,WindSpeedMPH,WindSpeedGustMPH,Humidity,HourlyPrecipIn,Conditions,Clouds,dailyrainin,SolarRadiationWatts/m^2,SoftwareType,DateUTC
2013-01-03 00:03:00,16.0,9.0,-100.00,WSW,244,3.0,5.0,73,0.00,,,0.00,0.000000,,2013-01-03 05:03:00,
2013-01-03 00:33:00,16.0,9.0,-100.00,WSW,248,1.0,2.0,74,0.00,,,0.00,0.000000,,2013-01-03 05:33:00,
2013-01-03 00:42:00,16.0,9.0,-100.00,WSW,248,1.0,2.0,74,0.00,,,0.00,0.000000,,2013-01-03 05:42:00,
2013-01-03 00:53:00,16.0,9.0,-100.00,WSW,248,1.0,2.0,74,0.00,,,0.00,0.000000,,2013-01-03 05:53:00,
2013-01-03 01:03:00,16.0,9.0,-100.00,WSW,248,1.0,2.0,74,0.00,,,0.00,0.000000,,2013-01-03 06:03:00,
2013-01-03 01:33:00,13.0,8.0,-100.00,SE,144,2.0,2.0,80,0.00,,,0.00,0.000000,,2013-01-03 06:33:00,
2013-01-03 01:43:00,13.0,8.0,-100.00,SE,144,2.0,2.0,80,0.00,,,0.00,0.000000,,2013-01-03 06:43:00,
2013-01-03 01:53:00,13.0,8.0,-100.00,SE,144,2.0,2.0,80,0.00,,,0.00,0.000000,,2013-01-03 06:53:00,
2013-01-03 02:02:00,13.0,8.0,-100.00,SE,144,2.0,2.0,80,0.00,,,0.00,0.000000,,2013-01-03 07:02:00,
2013-01-03 02:33:00,14.0,8.0,-100.00,SE,144,2.0,4.0,78,0.00,,,0.00,0.000000,,2013-01-03 07:33:00,
2013-01-03 02:43:00,14.0,8.0,-100.00,SE,144,2.0,4.0,78,0.00,,,0.00,0.000000,,2013-01-03 07:43:00,
2013-01-03 02:53:00,14.0,8.0,-100.00,SE,144,2.0,4.0,78,0.00,,,0.00,0.000000,,2013-01-03 07:53:00,
2013-01-03 03:02:00,14.0,8.0,-100.00,SE,144,2.0,4.0,78,0.00,,,0.00,0.000000,,2013-01-03 08:02:00,
2013-01-03 03:33:00,14.0,8.0,-100.00,SSW,205,3.0,3.0,78,0.00,,,0.00,0.000000,,2013-01-03 08:33:00,
2013-01-03 03:43:00,14.0,8.0,-100.00,SSW,205,3.0,3.0,78,0.00,,,0.00,0.000000,,2013-01-03 08:43:00,
2013-01-03 03:53:00,14.0,8.0,-100.00,SSW,205,3.0,3.0,78,0.00,,,0.00,0.000000,,2013-01-03 08:53:00,
2013-01-03 04:03:00,14.0,8.0,-100.00,SSW,205,3.0,3.0,78,0.00,,,0.00,0.000000,,2013-01-03 09:03:00,
2013-01-03 04:34:00,9.0,5.0,-100.00,East,88,1.0,2.0,83,0.00,,,0.00,0.000000,,2013-01-03 09:34:00,
2013-01-03 04:43:00,9.0,5.0,-100.00,East,88,1.0,2.0,83,0.00,,,0.00,0.000000,,2013-01-03 09:43:00,
2013-01-03 04:53:00,9.0,5.0,-100.00,East,88,1.0,2.0,83,0.00,,,0.00,0.000000,,2013-01-03 09:53:00,
2013-01-03 05:02:00,9.0,5.0,-100.00,East,88,1.0,2.0,83,0.00,,,0.00,0.000000,,2013-01-03 10:02:00,
2013-01-03 05:33:00,7.0,2.0,-100.00,SE,142,2.0,3.0,81,0.00,,,0.00,0.000000,,2013-01-03 10:33:00,
2013-01-03 05:43:00,7.0,2.0,-100.00,SE,142,2.0,3.0,81,0.00,,,0.00,0.000000,,2013-01-03 10:43:00,
2013-01-03 05:53:00,7.0,2.0,-100.00,SE,142,2.0,3.0,81,0.00,,,0.00,0.000000,,2013-01-03 10:53:00,
2013-01-03 06:02:00,7.0,2.0,-100.00,SE,142,2.0,3.0,81,0.00,,,0.00,0.000000,,2013-01-03 11:02:00,
2013-01-03 06:33:00,7.0,2.0,-100.00,SSE,163,2.0,2.0,81,0.00,,,0.00,0.000000,,2013-01-03 11:33:00,
2013-01-03 06:43:00,7.0,2.0,-100.00,SSE,163,2.0,2.0,81,0.00,,,0.00,0.000000,,2013-01-03 11:43:00,
2013-01-03 06:53:00,7.0,2.0,-100.00,SSE,163,2.0,2.0,81,0.00,,,0.00,0.000000,,2013-01-03 11:53:00,
2013-01-03 07:03:00,7.0,2.0,-100.00,SSE,163,2.0,2.0,81,0.00,,,0.00,0.000000,,2013-01-03 12:03:00,
2013-01-03 07:33:00,8.0,4.0,-100.00,SSW,205,3.0,4.0,83,0.00,,,0.00,0.000000,,2013-01-03 12:33:00,
2013-01-03 07:43:00,8.0,4.0,-100.00,SSW,205,3.0,4.0,83,0.00,,,0.00,0.000000,,2013-01-03 12:43:00,
2013-01-03 07:53:00,8.0,4.0,-100.00,SSW,205,3.0,4.0,83,0.00,,,0.00,0.000000,,2013-01-03 12:53:00,
2013-01-03 08:02:00,8.0,4.0,-100.00,SSW,205,3.0,4.0,83,0.00,,,0.00,0.000000,,2013-01-03 13:02:00,
2013-01-03 08:33:00,8.0,4.0,-100.00,South,191,1.0,2.0,82,0.00,,,0.00,4.000000,,2013-01-03 13:33:00,
2013-01-03 08:43:00,8.0,4.0,-100.00,South,191,1.0,2.0,82,0.00,,,0.00,4.000000,,2013-01-03 13:43:00,
2013-01-03 08:53:00,8.0,4.0,-100.00,South,191,1.0,2.0,82,0.00,,,0.00,4.000000,,2013-01-03 13:53:00,
2013-01-03 09:03:00,8.0,4.0,-100.00,South,191,1.0,2.0,82,0.00,,,0.00,4.000000,,2013-01-03 14:03:00,
2013-01-03 09:33:00,14.0,8.0,-100.00,SSW,196,4.0,7.0,78,0.00,,,0.00,91.000000,,2013-01-03 14:33:00,
2013-01-03 09:43:00,14.0,8.0,-100.00,SSW,196,4.0,7.0,78,0.00,,,0.00,91.000000,,2013-01-03 14:43:00,
2013-01-03 09:53:00,14.0,8.0,-100.00,SSW,196,4.0,7.0,78,0.00,,,0.00,91.000000,,2013-01-03 14:53:00,
2013-01-03 10:03:00,14.0,8.0,-100.00,SSW,196,4.0,7.0,78,0.00,,,0.00,91.000000,,2013-01-03 15:03:00,
2013-01-03 10:34:00,15.0,10.0,-100.00,South,189,3.0,5.0,79,0.00,,,0.00,85.000000,,2013-01-03 15:34:00,
2013-01-03 10:43:00,15.0,10.0,-100.00,South,189,3.0,5.0,79,0.00,,,0.00,85.000000,,2013-01-03 15:43:00,
2013-01-03 10:53:00,15.0,10.0,-100.00,South,189,3.0,5.0,79,0.00,,,0.00,85.000000,,2013-01-03 15:53:00,
2013-01-03 11:03:00,15.0,10.0,-100.00,South,189,3.0,5.0,79,0.00,,,0.00,85.000000,,2013-01-03 16:03:00,
2013-01-03 11:34:00,19.0,10.0,-100.00,SSW,208,5.0,10.0,68,0.00,,,0.00,196.000000,,2013-01-03 16:34:00,
2013-01-03 11:43:00,19.0,10.0,-100.00,SSW,208,5.0,10.0,68,0.00,,,0.00,196.000000,,2013-01-03 16:43:00,
2013-01-03 11:53:00,19.0,10.0,-100.00,SSW,208,5.0,10.0,68,0.00,,,0.00,196.000000,,2013-01-03 16:53:00,
2013-01-03 12:03:00,19.0,10.0,-100.00,SSW,208,5.0,10.0,68,0.00,,,0.00,196.000000,,2013-01-03 17:03:00,
2013-01-03 12:33:00,20.0,9.0,-100.00,SW,215,5.0,9.0,62,0.00,,,0.00,217.000000,,2013-01-03 17:33:00,
2013-01-03 12:43:00,20.0,9.0,-100.00,SW,215,5.0,9.0,62,0.00,,,0.00,217.000000,,2013-01-03 17:43:00,
2013-01-03 12:53:00,20.0,9.0,-100.00,SW,215,5.0,9.0,62,0.00,,,0.00,217.000000,,2013-01-03 17:53:00,
2013-01-03 13:03:00,20.0,9.0,-100.00,SW,215,5.0,9.0,62,0.00,,,0.00,217.000000,,2013-01-03 18:03:00,
2013-01-03 13:33:00,22.0,12.0,-100.00,SW,227,5.0,9.0,64,0.00,,,0.00,242.000000,,2013-01-03 18:33:00,
2013-01-03 13:43:00,22.0,12.0,-100.00,SW,227,5.0,9.0,64,0.00,,,0.00,242.000000,,2013-01-03 18:43:00,
2013-01-03 13:53:00,22.0,12.0,-100.00,SW,227,5.0,9.0,64,0.00,,,0.00,242.000000,,2013-01-03 18:53:00,
2013-01-03 14:03:00,22.0,12.0,-100.00,SW,227,5.0,9.0,64,0.00,,,0.00,242.000000,,2013-01-03 19:03:00,
2013-01-03 14:57:00,23.0,12.0,-100.00,WSW,239,6.0,15.0,62,0.00,,,0.00,148.000000,,2013-01-03 19:57:00,
2013-01-03 15:03:00,23.0,12.0,-100.00,WSW,239,6.0,15.0,62,0.00,,,0.00,148.000000,,2013-01-03 20:03:00,
2013-01-03 15:33:00,24.0,14.0,-100.00,SW,225,6.0,11.0,66,0.00,,,0.00,110.000000,,2013-01-03 20:33:00,
2013-01-03 15:43:00,24.0,14.0,-100.00,SW,225,6.0,11.0,66,0.00,,,0.00,110.000000,,2013-01-03 20:43:00,
2013-01-03 15:53:00,24.0,14.0,-100.00,SW,225,6.0,11.0,66,0.00,,,0.00,110.000000,,2013-01-03 20:53:00,
2013-01-03 16:03:00,24.0,14.0,-100.00,SW,225,6.0,11.0,66,0.00,,,0.00,110.000000,,2013-01-03 21:03:00,
2013-01-03 16:38:00,24.0,16.0,-100.00,WSW,240,4.0,7.0,70,0.00,,,0.00,45.000000,,2013-01-03 21:38:00,
2013-01-03 16:50:00,24.0,16.0,-100.00,WSW,240,4.0,7.0,70,0.00,,,0.00,45.000000,,2013-01-03 21:50:00,
2013-01-03 17:03:00,24.0,16.0,-100.00,WSW,240,4.0,7.0,70,0.00,,,0.00,45.000000,,2013-01-03 22:03:00,
2013-01-03 17:33:00,24.0,15.0,-100.00,WSW,241,6.0,11.0,69,0.00,,,0.00,9.000000,,2013-01-03 22:33:00,
2013-01-03 17:43:00,24.0,15.0,-100.00,WSW,241,6.0,11.0,69,0.00,,,0.00,9.000000,,2013-01-03 22:43:00,
2013-01-03 17:53:00,24.0,15.0,-100.00,WSW,241,6.0,11.0,69,0.00,,,0.00,9.000000,,2013-01-03 22:53:00,
2013-01-03 18:03:00,24.0,15.0,-100.00,WSW,241,6.0,11.0,69,0.00,,,0.00,9.000000,,2013-01-03 23:03:00,
2013-01-03 18:33:00,25.0,16.0,-100.00,WSW,244,6.0,11.0,69,0.00,,,0.00,0.000000,,2013-01-03 23:33:00,
2013-01-03 18:43:00,25.0,16.0,-100.00,WSW,244,6.0,11.0,69,0.00,,,0.00,0.000000,,2013-01-03 23:43:00,
2013-01-03 18:53:00,25.0,16.0,-100.00,WSW,244,6.0,11.0,69,0.00,,,0.00,0.000000,,2013-01-03 23:53:00,
2013-01-03 19:03:00,25.0,16.0,-100.00,WSW,244,6.0,11.0,69,0.00,,,0.00,0.000000,,2013-01-04 00:03:00,
2013-01-03 19:33:00,25.0,17.0,-100.00,WSW,244,6.0,16.0,70,0.00,,,0.00,0.000000,,2013-01-04 00:33:00,
2013-01-03 19:42:00,25.0,17.0,-100.00,WSW,244,6.0,16.0,70,0.00,,,0.00,0.000000,,2013-01-04 00:42:00,
2013-01-03 19:53:00,25.0,17.0,-100.00,WSW,244,6.0,16.0,70,0.00,,,0.00,0.000000,,2013-01-04 00:53:00,
2013-01-03 20:02:00,25.0,17.0,-100.00,WSW,244,6.0,16.0,70,0.00,,,0.00,0.000000,,2013-01-04 01:02:00,
2013-01-03 20:33:00,25.0,19.0,-100.00,West,260,7.0,11.0,76,0.00,,,0.00,0.000000,,2013-01-04 01:33:00,
2013-01-03 20:42:00,25.0,19.0,-100.00,West,260,7.0,11.0,76,0.00,,,0.00,0.000000,,2013-01-04 01:42:00,
2013-01-03 20:53:00,25.0,19.0,-100.00,West,260,7.0,11.0,76,0.00,,,0.00,0.000000,,2013-01-04 01:53:00,
2013-01-03 21:02:00,25.0,19.0,-100.00,West,260,7.0,11.0,76,0.00,,,0.00,0.000000,,2013-01-04 02:02:00,
2013-01-03 21:33:00,25.0,20.0,-100.00,WSW,250,7.0,16.0,80,0.00,,,0.00,0.000000,,2013-01-04 02:33:00,
2013-01-03 21:42:00,25.0,20.0,-100.00,WSW,250,7.0,16.0,80,0.00,,,0.00,0.000000,,2013-01-04 02:42:00,
2013-01-03 21:53:00,25.0,20.0,-100.00,WSW,250,7.0,16.0,80,0.00,,,0.00,0.000000,,2013-01-04 02:53:00,
2013-01-03 22:03:00,25.0,20.0,-100.00,WSW,250,7.0,16.0,80,0.00,,,0.00,0.000000,,2013-01-04 03:03:00,
2013-01-03 22:33:00,25.0,20.0,-100.00,West,260,7.0,14.0,82,0.00,,,0.00,0.000000,,2013-01-04 03:33:00,
2013-01-03 22:43:00,25.0,20.0,-100.00,West,260,7.0,14.0,82,0.00,,,0.00,0.000000,,2013-01-04 03:43:00,
2013-01-03 22:53:00,25.0,20.0,-100.00,West,260,7.0,14.0,82,0.00,,,0.00,0.000000,,2013-01-04 03:53:00,
2013-01-03 23:02:00,25.0,20.0,-100.00,West,260,7.0,14.0,82,0.00,,,0.00,0.000000,,2013-01-04 04:02:00,
2013-01-03 23:32:00,24.0,19.0,-100.00,WSW,250,6.0,12.0,81,0.00,,,0.00,0.000000,,2013-01-04 04:32:00,
2013-01-03 23:42:00,24.0,19.0,-100.00,WSW,250,6.0,12.0,81,0.00,,,0.00,0.000000,,2013-01-04 04:42:00,
2013-01-03 23:53:00,24.0,19.0,-100.00,WSW,250,6.0,12.0,81,0.00,,,0.00,0.000000,,2013-01-04 04:53:00,